Cookies

Aceptar Utilizamos cookies propias y de terceros para mejorar nuestros servicios y mostrarle publicidad relacionada con sus preferencias mediante el análisis de sus hábitos de navegación. Si continua navegando, consideramos que acepta su uso. Puede cambiar la configuración u obtener más información aqui.





Formato DD/MM/YYYY
Formato DD/MM/YYYY

IMPORTANTE: Los filtros deben estar dentro de un mismo rango de fechas para los cuales existen datos:

  • Rango 1: de 01/04/2018 a 18/12/2018.

Datos

Fecha Temperatura Raw(ºC) Conductividad(mS/cm) Salinidad(psu) Oxígeno Disuelto(%) Oxígeno Disuelto(mg/l) Turbidez(NTU) Clorofila(ug/l)
04/05/2018 08:00 14,13 55080,00 36,51 7,5 93,30 2,2 3,78
04/05/2018 12:00 14,21 55400,00 36,75 7,5 93,30 2,2 4,19
04/05/2018 16:00 14,67 55180,00 36,59 7,8 97,70 2,2 4,34
04/05/2018 20:00 14,49 55080,00 36,52 8,0 100,30 2,2 4,85
05/05/2018 00:00 14,49 55240,00 36,64 7,9 99,50 2,3 4,66
05/05/2018 04:00 14,61 54163,00 36,61 7,9 99,60 2,0 4,92
05/05/2018 08:00 14,71 55010,00 36,47 8,2 102,60 2,3 4,67
05/05/2018 12:00 14,78 54890,00 36,39 8,2 102,60 2,4 5,01
05/05/2018 16:00 14,43 55110,00 36,56 8,1 103,00 2,3 4,45
05/05/2018 20:00 14,22 55020,00 36,49 8,5 107,60 2,2 5,53
06/05/2018 00:00 13,89 54230,00 36,64 8,1 102,50 2,0 4,63
06/05/2018 04:00 13,88 54870,00 36,38 8,0 101,10 2,1 4,30
06/05/2018 08:00 13,33 54900,00 36,41 8,0 101,20 2,3 3,86
06/05/2018 12:00 13,49 54960,00 36,45 8,0 101,70 2,3 4,43
06/05/2018 16:00 13,77 54680,00 36,25 7,9 101,20 2,3 3,62
06/05/2018 20:00 13,68 54900,00 36,41 7,9 101,50 2,2 3,88
07/05/2018 00:00 13,60 54790,00 36,32 7,9 101,30 2,1 4,15
07/05/2018 04:00 13,43 54720,00 36,27 8,0 101,30 2,3 4,59
07/05/2018 08:00 14,08 54150,00 36,59 7,7 97,80 2,2 4,07
07/05/2018 12:00 13,40 54270,00 36,68 7,6 97,70 2,0 3,34
07/05/2018 16:00 13,30 54080,00 36,55 7,9 102,10 2,2 4,04
07/05/2018 20:00 13,71 54460,00 36,68 8,0 102,40 2,3 5,38
08/05/2018 00:00 13,25 54310,00 36,71 8,0 101,70 2,0 4,27
08/05/2018 04:00 13,65 54150,00 36,59 7,9 101,50 2,1 4,10
08/05/2018 08:00 13,55 54180,00 36,61 8,0 101,80 2,1 3,86
08/05/2018 12:00 13,05 54060,00 36,53 8,1 104,10 2,3 3,60
08/05/2018 16:00 13,55 53030,00 36,52 8,0 104,90 2,3 3,72
08/05/2018 20:00 13,93 53830,00 36,36 8,3 107,10 2,2 4,23
09/05/2018 00:00 13,76 53150,00 36,60 8,4 108,30 2,3 3,77
09/05/2018 04:00 13,91 53640,00 36,22 8,5 109,10 2,3 3,74
09/05/2018 08:00 14,04 52820,00 36,36 8,3 107,40 2,2 3,83
09/05/2018 12:00 14,50 52780,00 36,33 8,4 108,60 2,1 3,19
09/05/2018 16:00 14,57 54980,00 35,48 8,2 106,70 2,2 3,86
09/05/2018 20:00 14,15 55160,00 36,57 7,8 96,90 2,0 4,99
10/05/2018 00:00 14,29 55190,00 36,60 7,6 94,70 2,1 3,93
10/05/2018 04:00 14,13 55080,00 36,51 7,5 93,30 2,2 3,78
10/05/2018 08:00 14,21 55400,00 36,75 7,5 93,30 2,2 4,19
10/05/2018 12:00 14,67 55180,00 36,59 7,8 97,70 2,2 4,34
10/05/2018 16:00 14,49 55080,00 36,52 8,0 100,30 2,2 4,85
10/05/2018 20:00 14,49 55240,00 36,64 7,9 99,50 2,3 4,66
11/05/2018 00:00 14,61 54163,00 36,61 7,9 99,60 2,0 4,92
11/05/2018 04:00 14,71 55010,00 36,47 8,2 102,60 2,3 4,67
11/05/2018 08:00 14,78 54890,00 36,39 8,2 102,60 2,4 5,01
11/05/2018 12:00 14,43 55110,00 36,56 8,1 103,00 2,3 4,45
11/05/2018 16:00 14,22 55020,00 36,49 8,5 107,60 2,2 5,53
11/05/2018 20:00 14,02 54300,00 35,98 7,7 101,40 2,0 4,45
12/05/2018 00:00 14,02 54300,00 35,98 7,7 101,40 2,2 4,45
12/05/2018 04:00 14,03 54030,00 35,78 7,8 102,00 2,2 5,16
12/05/2018 08:00 14,09 53920,00 35,70 8,0 104,70 2,4 3,58
12/05/2018 12:00 14,21 53970,00 35,74 8,0 104,70 2,3 4,65
12/05/2018 16:00 14,28 53760,00 35,58 7,9 104,20 2,3 4,72
12/05/2018 20:00 14,88 53470,00 35,36 7,6 100,60 2,2 2,27
13/05/2018 00:00 14,66 53890,00 35,67 7,8 101,70 2,2 4,49
13/05/2018 04:00 14,98 53980,00 35,74 8,9 116,90 2,2 3,45
13/05/2018 08:00 14,98 53930,00 35,70 7,8 101,80 2,4 3,44
13/05/2018 12:00 14,09 54790,00 36,31 8,0 102,00 2,3 6,16
13/05/2018 16:00 14,66 55070,00 36,52 7,8 98,50 2,1 5,63
13/05/2018 20:00 14,17 54710,00 36,26 8,2 103,60 2,0 7,97
14/05/2018 00:00 14,06 54630,00 36,19 8,1 102,80 2,0 4,40
14/05/2018 04:00 14,72 55140,00 36,57 8,0 101,30 2,2 4,63
14/05/2018 08:00 14,98 55070,00 36,52 8,1 102,40 2,2 4,57
14/05/2018 12:00 14,48 55250,00 36,64 7,6 94,60 2,2 3,85
14/05/2018 16:00 17,98 54650,00 36,24 8,2 107,30 1,9 5,18
14/05/2018 20:00 17,86 54720,00 36,30 8,1 105,90 2,2 4,91
15/05/2018 00:00 17,57 54630,00 36,22 7,8 101,90 2,3 4,88
15/05/2018 04:00 18,58 54540,00 36,17 8,3 109,70 2,2 3,79
15/05/2018 08:00 18,47 54510,00 36,14 8,2 108,10 2,3 4,73
15/05/2018 12:00 18,25 54650,00 36,25 7,9 103,90 2,4 5,44
15/05/2018 16:00 17,32 54780,00 36,33 8,3 107,80 2,3 4,73
15/05/2018 20:00 17,31 54800,00 36,34 8,2 106,70 2,0 3,64
16/05/2018 00:00 17,32 54800,00 36,34 8,0 103,80 2,3 4,29
16/05/2018 04:00 17,68 54680,00 36,26 8,5 111,50 2,4 3,67
16/05/2018 08:00 17,95 54670,00 36,26 8,3 108,50 2,3 3,71
16/05/2018 12:00 17,69 54850,00 36,39 8,5 111,30 2,1 4,48
16/05/2018 16:00 17,50 54820,00 36,36 8,6 111,60 2,1 4,12
16/05/2018 20:00 17,48 54670,00 36,25 8,4 109,30 2,1 4,57
17/05/2018 00:00 17,30 54660,00 36,24 8,4 108,30 2,2 3,96
17/05/2018 04:00 18,14 54620,00 36,22 8,4 110,00 2,3 4,38
17/05/2018 08:00 18,25 54750,00 36,32 8,1 107,50 2,2 4,23
17/05/2018 12:00 17,69 54940,00 36,45 8,2 107,20 2,4 6,14
17/05/2018 16:00 17,74 54730,00 36,30 8,2 107,50 2,2 3,49
17/05/2018 20:00 17,88 54390,00 36,05 8,3 108,40 2,0 3,69
18/05/2018 00:00 18,11 54390,00 36,05 8,4 109,90 2,2 3,44
18/05/2018 04:00 17,99 54450,00 36,09 8,1 106,20 2,2 4,08
18/05/2018 08:00 18,02 54300,00 35,98 7,7 101,40 2,0 4,45
18/05/2018 12:00 18,02 54300,00 35,98 7,7 101,40 2,2 4,45
18/05/2018 16:00 18,03 54030,00 35,78 7,8 102,00 2,2 5,16
18/05/2018 20:00 18,09 53920,00 35,70 8,0 104,70 2,4 3,58
19/05/2018 00:00 18,21 53970,00 35,74 8,0 104,70 2,3 4,65
19/05/2018 04:00 18,28 53760,00 35,58 7,9 104,20 2,3 4,72
19/05/2018 08:00 17,88 53470,00 35,36 7,6 100,60 2,2 2,27
19/05/2018 12:00 17,66 53890,00 35,67 7,8 101,70 2,2 4,49
19/05/2018 16:00 17,98 53980,00 35,74 8,9 116,90 2,2 3,45
19/05/2018 20:00 17,98 53930,00 35,70 7,8 101,80 2,4 3,44
20/05/2018 00:00 16,09 54790,00 36,31 8,0 102,00 2,3 6,16
20/05/2018 04:00 15,66 55070,00 36,52 7,8 98,50 2,1 5,63
20/05/2018 08:00 16,17 54710,00 36,26 8,2 103,60 2,0 7,97
20/05/2018 12:00 16,06 54630,00 36,19 8,1 102,80 2,0 4,40
20/05/2018 16:00 15,72 55140,00 36,57 8,0 101,30 2,2 4,63
20/05/2018 20:00 15,98 55070,00 36,52 8,1 102,40 2,2 4,57
Total: 1.374

{u'battery_level': u'\n
\n
\n
', u'Chlorophyll': u'\n
\n
\n
', u'Temperature': u'\n
\n
\n
', u'AOxygen': u'\n
\n
\n
', u'Salinity': u'\n
\n
\n
', u'redox': u'\n
\n
\n
', u'POxygen': u'\n
\n
\n
', u'pH': u'\n
\n
\n
', u'turbidity': u'\n
\n
\n
', u'Conductivity': u'\n
\n
\n
'}